TimeMDT,TemperatureF,Dew PointF,Humidity,Sea Level PressureIn,VisibilityMPH,Wind Direction,Wind SpeedMPH,Gust SpeedMPH,PrecipitationIn,Events,Conditions,WindDirDegrees,DateUTC
12:53 AM,9.0,-6.0,51,30.14,10.0,NNE,8.1,-,N/A,,Clear,30,2013-03-26 06:53:00
1:53 AM,8.1,-6.0,53,30.13,10.0,NNE,9.2,-,N/A,,Clear,30,2013-03-26 07:53:00
2:53 AM,10.0,-4.0,53,30.07,10.0,ENE,8.1,-,N/A,,Mostly Cloudy,60,2013-03-26 08:53:00
3:53 AM,14.0,1.0,56,30.02,10.0,NE,9.2,-,N/A,,Mostly Cloudy,50,2013-03-26 09:53:00
4:53 AM,12.9,1.9,62,30.02,10.0,NE,10.4,-,N/A,,Overcast,40,2013-03-26 10:53:00
5:53 AM,18.0,10.0,71,30.02,6.0,North,8.1,-,0.00,Snow,Light Snow,360,2013-03-26 11:53:00
6:53 AM,19.9,10.0,65,30.02,10.0,NNE,10.4,-,0.00,,Overcast,30,2013-03-26 12:53:00
7:53 AM,21.9,12.0,66,30.06,10.0,North,9.2,-,N/A,,Mostly Cloudy,10,2013-03-26 13:53:00
8:53 AM,27.0,12.9,56,30.06,10.0,NNW,8.1,-,N/A,,Mostly Cloudy,330,2013-03-26 14:53:00
9:53 AM,30.9,14.0,50,30.04,10.0,North,9.2,18.4,N/A,,Scattered Clouds,350,2013-03-26 15:53:00
10:53 AM,32.0,14.0,48,30.02,10.0,North,11.5,-,N/A,,Overcast,350,2013-03-26 16:53:00
11:53 AM,33.1,14.0,46,29.99,10.0,Variable,6.9,-,N/A,,Overcast,0,2013-03-26 17:53:00
12:53 PM,35.1,12.9,40,29.95,10.0,WNW,5.8,21.9,N/A,,Scattered Clouds,300,2013-03-26 18:53:00
1:53 PM,37.0,9.0,31,29.92,10.0,West,19.6,25.3,N/A,,Mostly Cloudy,260,2013-03-26 19:53:00
2:53 PM,36.0,9.0,33,29.92,10.0,West,12.7,25.3,N/A,,Overcast,260,2013-03-26 20:53:00
3:53 PM,36.0,8.1,31,29.88,10.0,West,6.9,-,N/A,,Overcast,260,2013-03-26 21:53:00
4:53 PM,37.0,7.0,29,29.88,10.0,West,10.4,18.4,N/A,,Mostly Cloudy,270,2013-03-26 22:53:00
5:53 PM,35.1,6.1,30,29.86,10.0,West,9.2,21.9,N/A,,Overcast,260,2013-03-26 23:53:00
6:53 PM,30.0,14.0,51,29.90,10.0,NW,8.1,-,N/A,,Mostly Cloudy,310,2013-03-27 00:53:00
7:53 PM,27.0,19.9,75,29.93,10.0,NE,4.6,-,N/A,,Overcast,40,2013-03-27 01:53:00
8:24 PM,26.6,19.4,74,30.04,7.0,NNE,5.8,-,0.00,Snow,Light Snow,30,2013-03-27 02:24:00
8:42 PM,26.6,19.4,74,30.04,10.0,Calm,Calm,-,0.00,,Scattered Clouds,0,2013-03-27 02:42:00
8:53 PM,26.1,19.9,78,29.91,10.0,ENE,4.6,-,0.00,,Clear,60,2013-03-27 02:53:00
9:53 PM,23.0,17.1,78,29.92,10.0,NE,5.8,-,N/A,,Mostly Cloudy,40,2013-03-27 03:53:00
10:53 PM,25.0,18.0,75,29.91,7.0,Calm,Calm,-,0.00,Snow,Light Snow,0,2013-03-27 04:53:00
11:05 PM,24.8,17.6,74,30.07,4.0,Calm,Calm,-,0.00,Snow,Light Snow,0,2013-03-27 05:05:00
11:14 PM,24.8,19.4,80,30.07,7.0,Calm,Calm,-,0.00,Snow,Light Snow,0,2013-03-27 05:14:00
11:32 PM,24.8,19.4,80,30.06,6.0,Calm,Calm,-,0.00,Snow,Light Snow,0,2013-03-27 05:32:00
11:49 PM,23.0,19.4,86,30.06,10.0,ENE,4.6,-,0.00,,Mostly Cloudy,70,2013-03-27 05:49:00
11:53 PM,23.0,19.0,85,29.91,10.0,ENE,4.6,-,0.00,,Mostly Cloudy,70,2013-03-27 05:53:00